Location: Ústí nad Labem
(50.6611°N, 14.0531°E)
Time: 06:11:37
(UTC+02:00)

Courier 1B Rocket - Visible Passes

Search period start: 22 April 2024 00:00
Search period end: 02 May 2024 00:00
Orbit: 920 x 1201 km, 28.2° (Epoch: 21 April)

Date Brightness Start Highest point End Pass type
(mag) Time Alt. Az. Time Alt. Az. Time Alt. Az.
25 Apr 7.2 04:28:51 10° SSW 04:31:05 11° S 04:33:19 10° SSE visible
26 Apr 7.2 03:30:16 10° S 03:30:17 10° S 03:31:40 10° SSE visible
27 Apr 7.1 04:19:01 10° SSW 04:21:30 12° S 04:24:16 10° SSE visible
28 Apr 7.1 03:21:27 12° SSE 03:21:27 12° SSE 03:23:18 10° SSE visible
29 Apr 7.0 04:10:17 11° SSW 04:11:55 12° S 04:14:39 10° SSE visible
30 Apr 7.2 03:12:51 12° SSE 03:12:51 12° SSE 03:14:04 10° SSE visible
01 May 7.1 04:01:51 11° SSW 04:02:18 11° S 04:04:24 10° S visible
